Theta_e
322 313 309 308 300 296 293 297 299 301 303 306 310 312 311 313 310 300 327 333 334 336 340 340 344 347 347 347 347 348 348 346 343 341 341 341 342 340 339 338 340 338 337 338 337 338 339 338 338
319 314 309 303 295 289 291 299 300 301 308 311 313 312 312 310 320 326 325 332 336 337 339 338 341 346 347 346 347 346 346 345 343 342 342 342 343 340 339 337 338 336 336 337 337 338 338 337 337
311 311 303 300 293 291 293 300 303 306 308 309 308 314 314 314 321 324 329 332 335 335 338 337 341 345 346 346 346 345 344 344 343 341 341 343 342 340 338 337 336 336 335 336 337 338 337 337 337
308 308 303 296 294 297 300 303 305 306 308 312 311 309 316 323 323 326 330 331 332 333 336 338 342 344 345 345 345 344 343 342 342 338 340 340 339 337 337 336 335 335 334 336 336 336 336 335 335
308 304 296 294 295 297 300 305 307 305 306 307 310 309 314 323 326 330 326 331 330 332 335 338 341 342 343 343 343 343 341 341 341 340 338 338 337 336 335 335 335 334 334 335 335 334 333 333 333
302 304 295 292 295 298 298 305 307 305 306 309 311 312 315 322 327 326 327 329 331 333 335 336 334 337 340 342 342 341 341 341 340 338 337 337 337 336 335 335 334 333 332 334 334 332 331 331 331
301 300 296 294 296 298 299 303 305 305 306 307 316 312 315 319 325 326 326 329 331 332 332 331 333 334 334 337 338 339 340 339 339 338 337 337 336 337 334 332 333 332 331 331 332 330 330 330 329
304 302 298 296 296 299 301 301 305 307 306 310 319 311 313 321 323 325 325 327 328 329 330 329 330 331 332 333 332 334 336 337 337 336 333 331 332 332 332 330 333 332 330 329 329 328 327 327 327
306 298 295 298 299 301 301 301 302 306 307 309 314 317 319 325 325 324 322 322 326 327 328 328 329 329 330 332 329 330 332 332 331 330 327 325 325 325 326 327 332 332 330 328 327 326 324 323 322
301 295 298 306 305 301 301 301 302 304 305 307 315 321 325 323 324 323 321 320 322 323 325 327 327 328 329 333 328 329 330 329 327 325 324 324 323 323 324 322 327 329 328 329 328 325 324 321 316
303 297 303 306 305 303 304 301 303 303 301 308 313 319 323 321 321 323 323 322 322 323 325 327 327 327 328 329 327 326 326 325 325 323 323 324 323 321 320 318 318 317 318 318 318 317 317 316 315
300 303 304 306 304 301 301 302 301 303 305 308 317 323 323 321 320 323 322 323 323 323 324 327 326 326 328 328 327 326 326 324 324 323 323 322 320 319 317 316 315 314 315 314 314 315 315 315 316
301 303 306 308 305 300 300 298 300 300 304 305 321 323 323 322 323 321 322 326 325 323 325 326 325 325 327 327 327 326 324 324 324 324 324 323 321 319 318 316 316 316 315 315 314 315 315 315 315
307 306 307 308 305 300 297 296 297 299 301 312 321 320 322 323 324 321 320 321 325 325 326 327 325 325 326 326 326 327 326 325 324 323 324 324 322 319 319 318 318 317 316 316 315 315 314 314 315
308 303 307 308 302 297 297 294 295 300 299 308 318 319 319 321 324 323 323 321 326 327 326 326 327 326 326 326 325 326 326 325 325 324 323 323 322 320 319 318 317 317 316 316 314 314 313 313 313
303 303 298 307 301 298 296 291 302 300 298 298 307 316 319 319 321 324 326 324 323 326 326 327 328 327 326 326 326 325 325 325 324 323 323 323 322 321 320 318 317 317 316 315 313 313 312 312 312
298 294 296 301 302 298 295 293 301 304 297 297 295 304 315 318 318 322 325 325 323 325 325 326 327 326 326 326 326 325 325 323 324 322 323 322 322 321 320 319 318 318 316 314 313 312 312 311 311
292 293 296 297 303 297 293 293 299 300 298 297 297 297 304 312 317 321 322 325 326 324 325 326 326 326 327 327 326 324 324 323 323 323 322 322 322 321 320 319 319 318 315 314 313 312 312 312 313
298 296 296 301 305 298 297 294 297 300 298 298 296 294 296 302 313 319 322 323 324 323 322 324 325 325 326 325 324 323 323 322 322 324 323 322 322 321 320 319 318 317 316 315 313 312 311 313 316
299 296 295 301 304 300 296 294 299 298 298 301 301 298 297 299 302 308 316 321 323 322 323 323 325 325 325 326 325 324 324 324 326 325 324 324 322 321 320 319 319 317 316 313 313 312 310 314 316
297 295 297 297 299 298 293 294 296 296 300 302 303 305 302 300 299 303 311 317 321 322 323 323 324 325 325 326 325 320 320 319 319 322 324 324 323 322 321 319 319 318 318 317 314 313 311 310 311
293 300 298 299 293 291 294 290 293 296 297 299 301 303 303 302 299 302 309 314 318 321 324 325 324 324 325 325 324 322 321 320 322 323 324 324 324 323 322 320 319 319 318 317 316 315 313 313 309
295 301 299 299 294 290 287 285 290 290 292 296 299 302 304 304 303 301 306 313 317 320 322 325 325 323 324 324 324 322 321 322 321 321 321 322 323 324 323 322 320 319 319 318 316 311 313 313 311
301 299 295 294 291 284 292 285 286 288 293 294 297 299 302 302 301 302 302 311 314 317 320 323 323 324 324 324 324 323 322 322 320 320 321 322 323 324 324 322 321 321 319 318 316 315 314 314 314
299 293 284 282 283 284 287 284 291 294 296 295 296 297 298 300 300 302 298 304 311 314 317 320 322 322 325 325 324 324 324 323 322 321 321 321 322 323 323 323 321 321 320 319 317 315 315 313 313
295 292 285 279 280 283 285 282 288 296 301 302 297 297 294 295 296 298 299 301 310 313 316 318 320 321 323 325 325 325 326 325 325 324 323 323 323 324 325 323 323 321 320 318 317 317 316 315 313
293 289 293 283 277 278 281 284 289 293 293 293 294 295 293 293 293 294 295 296 306 311 315 317 318 320 321 323 325 325 326 326 325 325 324 324 324 324 323 323 322 321 320 319 318 317 315 312 313
295 297 288 285 277 273 278 279 284 289 292 293 291 291 292 292 292 293 293 295 296 306 311 315 317 318 319 321 323 324 325 326 326 325 323 324 324 321 322 323 323 321 320 319 318 319 316 314 315
291 291 291 291 284 277 275 280 288 291 291 292 292 292 292 292 292 292 293 293 295 295 299 305 309 311 311 313 318 321 322 323 325 324 323 323 323 322 322 323 324 322 321 320 320 320 318 315 315
296 293 292 287 281 281 280 281 290 289 288 290 292 291 291 291 291 291 292 293 294 294 295 296 298 301 303 305 307 310 312 313 318 322 321 319 320 322 324 324 322 322 321 321 320 319 316 315 313
Wind_Speed
8 9 2 5 4 5 3 2 2 4 4 2 3 9 8 4 2 3 1 8 14 9 6 8 10 12 14 14 15 14 15 15 16 15 16 16 18 18 19 18 17 17 17 17 17 17 17 17 18
6 6 5 2 5 3 5 2 5 1 6 9 9 5 6 2 3 8 6 10 12 10 6 6 9 11 14 14 14 14 14 14 14 15 13 14 18 18 18 17 17 16 16 16 16 17 17 17 16
6 0 3 4 3 2 3 2 5 2 1 4 5 6 4 4 4 7 10 12 11 8 7 8 10 11 13 13 14 13 14 14 14 15 13 15 18 17 16 16 16 16 15 16 16 15 16 17 18
4 5 4 4 3 5 6 5 4 5 3 7 5 6 2 4 8 8 13 14 11 7 7 9 12 12 11 13 13 13 12 13 13 15 13 15 17 16 16 16 15 15 15 15 15 14 14 16 16
3 2 2 1 3 3 2 4 5 4 5 4 4 3 3 2 11 17 13 12 12 8 6 7 11 12 12 11 12 13 13 12 12 13 13 15 15 14 14 15 14 14 14 14 14 13 12 14 15
4 2 2 3 4 3 3 5 6 4 3 5 7 6 4 6 16 12 13 11 11 10 7 8 10 9 10 11 10 14 13 13 13 13 14 14 14 14 13 12 13 13 14 13 13 12 11 12 14
2 2 4 3 3 3 6 6 5 5 6 4 11 5 2 5 9 12 12 10 10 7 7 6 6 7 8 10 10 12 12 12 12 12 12 11 12 10 11 13 13 12 12 12 12 10 10 10 10
2 1 3 4 4 5 4 6 6 7 6 5 6 7 6 11 9 12 11 10 9 7 6 6 6 6 6 6 9 11 11 10 10 10 10 10 10 10 9 9 11 12 12 11 10 8 8 8 9
5 1 3 5 5 5 2 5 1 2 6 3 1 7 6 17 13 12 10 6 8 6 7 6 7 6 6 6 6 8 11 10 10 9 9 7 4 5 6 6 10 10 10 11 10 8 6 7 6
3 2 5 4 3 5 6 6 8 5 4 1 2 3 13 17 18 17 15 13 12 12 9 8 8 7 7 6 6 5 7 5 5 5 6 4 4 4 5 5 8 8 7 6 7 6 3 2 1
3 4 6 7 8 6 7 5 6 7 4 7 11 10 18 14 16 16 15 16 16 13 10 10 10 8 9 7 4 3 3 4 4 6 5 4 4 3 3 3 2 2 3 1 2 2 1 3 2
2 9 7 14 6 5 6 6 6 8 8 7 11 18 20 18 17 18 16 15 13 14 13 11 11 11 9 6 6 5 5 4 4 5 7 5 3 4 4 3 4 3 2 3 2 2 3 3 3
5 5 12 16 12 8 5 6 6 9 6 3 12 14 20 19 19 14 14 13 13 15 14 14 11 12 10 9 7 6 5 5 5 5 6 5 6 5 4 4 4 4 4 4 4 3 3 2 2
5 7 14 14 12 7 5 4 2 7 4 8 16 15 16 18 20 9 12 15 16 16 16 15 13 12 11 10 10 8 6 7 6 5 6 8 7 6 5 4 4 4 4 4 4 4 4 3 2
3 5 9 20 10 7 5 8 8 6 7 10 14 15 13 15 14 18 20 18 18 15 16 15 15 12 12 12 10 8 7 7 7 7 7 7 6 6 6 5 4 4 4 5 3 3 2 3 2
5 2 6 14 8 8 8 9 5 10 8 10 10 10 14 16 18 19 16 15 15 14 16 15 12 11 11 11 9 7 7 7 7 6 6 8 7 7 6 5 5 5 4 4 4 3 2 3 3
4 8 10 13 8 8 8 7 8 8 9 11 10 11 13 14 14 17 16 15 15 16 15 15 14 13 12 9 8 7 7 5 6 5 6 8 8 7 6 5 5 5 4 4 4 4 3 3 3
12 6 7 12 4 5 8 16 8 5 8 14 10 11 12 12 19 18 18 18 14 14 14 14 12 13 13 8 6 3 3 4 4 6 6 8 7 8 7 5 6 6 4 4 3 5 3 3 4
8 10 15 10 8 7 17 18 18 14 5 9 9 9 11 16 19 17 17 16 15 13 14 17 16 15 11 10 9 7 7 4 4 7 9 9 9 9 9 6 6 5 6 7 5 3 4 4 3
7 8 16 12 6 8 11 20 21 10 9 11 13 11 15 15 14 11 15 16 17 18 20 18 19 16 14 10 8 6 7 6 8 6 8 10 10 10 9 9 8 8 5 6 6 5 3 3 4
14 11 8 13 3 6 4 17 17 9 16 15 12 16 15 18 16 14 15 18 19 20 20 19 19 18 16 14 9 3 3 2 4 6 8 8 10 11 11 10 9 8 7 8 6 7 7 5 4
16 14 11 11 1 7 9 11 11 8 18 18 21 19 19 17 9 13 17 18 20 20 16 17 17 17 15 16 13 15 11 11 9 9 8 9 10 11 12 11 11 10 8 8 9 8 6 4 5
8 7 2 6 4 5 5 4 7 3 8 13 19 20 20 19 16 17 13 19 17 15 16 17 17 16 17 16 15 12 13 10 5 6 9 10 9 13 12 13 12 11 8 10 9 6 8 6 3
7 3 7 3 2 6 12 9 8 7 9 8 7 13 17 14 13 13 13 14 13 12 13 15 17 17 16 17 18 17 17 14 9 9 10 9 9 9 13 13 12 12 10 10 9 9 9 9 7
8 9 3 3 6 8 1 8 13 7 10 9 10 9 10 11 10 13 11 11 12 13 14 14 17 18 17 17 18 18 18 16 16 14 11 11 9 8 11 13 12 10 10 9 8 8 10 9 8
17 5 7 8 5 2 4 11 9 16 18 15 8 8 7 9 9 11 11 13 14 15 17 17 17 17 16 17 19 17 17 12 12 13 11 10 10 9 9 11 11 12 10 9 9 7 8 8 8
8 6 2 10 2 3 5 9 10 15 11 9 10 8 10 9 8 10 9 10 11 13 16 18 17 17 15 17 16 16 15 17 16 15 11 10 10 8 8 10 12 12 11 12 12 9 10 8 9
9 14 5 5 5 5 5 5 9 7 13 9 8 10 10 9 8 8 7 9 8 9 10 11 14 17 15 17 15 14 16 16 16 12 14 15 11 9 11 12 12 11 12 13 13 11 9 11 9
7 10 6 7 6 6 2 8 10 14 5 8 9 11 10 9 9 8 7 6 7 6 7 7 7 8 8 9 11 12 12 13 12 13 12 13 11 11 12 13 13 13 14 13 14 13 12 13 11
25 11 5 5 7 5 3 9 5 7 7 8 9 9 7 7 7 6 6 5 5 5 6 7 7 7 7 6 6 7 6 6 9 12 11 9 12 11 13 12 12 12 13 13 13 12 10 13 11
Wind_Direction
332 317 80 38 45 62 273 249 158 158 65 324 71 100 114 57 74 201 125 141 131 131 134 125 136 131 126 126 126 122 114 109 107 109 109 110 109 101 96 89 84 85 85 87 88 89 83 70 64
332 328 37 73 81 44 279 282 147 210 145 130 96 97 53 71 87 120 102 151 132 132 128 127 136 132 131 131 124 117 114 112 111 109 110 115 108 101 97 94 90 87 88 90 92 92 83 68 62
318 110 64 85 104 193 238 243 164 127 142 92 91 56 114 135 104 149 133 140 130 127 136 138 138 138 133 138 127 123 122 121 121 117 102 93 103 101 100 96 93 91 92 94 97 93 83 71 72
1 6 20 91 231 267 186 206 197 136 62 68 113 70 29 213 153 143 140 139 131 131 135 145 143 141 130 133 135 131 125 123 125 126 115 106 102 104 105 104 102 97 99 99 99 92 83 78 80
32 66 15 82 258 266 190 209 169 124 132 109 123 135 61 4 122 133 141 142 139 137 146 147 145 143 135 130 129 128 124 118 113 111 121 115 112 106 112 108 104 101 101 101 99 93 81 76 71
9 76 46 237 241 215 237 224 164 143 147 154 83 107 173 129 136 142 143 141 140 142 140 151 141 143 143 137 129 131 130 127 125 126 125 124 121 120 116 109 103 99 104 105 103 98 89 80 71
5 101 216 228 236 259 202 173 178 165 147 190 144 97 157 171 154 140 141 137 142 140 135 138 136 138 146 141 137 138 138 138 138 136 128 113 113 113 116 123 111 106 103 107 105 100 93 84 74
10 18 236 232 212 248 232 184 148 148 211 96 148 158 181 197 154 129 134 137 145 147 147 147 141 139 136 143 140 139 141 140 138 128 125 118 115 114 109 103 118 117 110 109 105 99 94 81 63
313 293 246 238 204 242 197 182 222 139 124 89 69 156 195 152 141 130 139 134 153 162 167 162 154 152 149 147 152 148 147 145 139 135 137 125 124 118 108 111 120 126 125 125 118 112 97 71 36
327 218 235 251 274 244 205 193 172 135 146 80 42 5 145 145 157 157 168 167 171 177 184 179 167 163 156 157 155 146 148 146 148 151 147 135 136 132 125 129 129 134 135 133 130 121 95 52 13
320 245 314 278 270 258 204 211 189 133 246 199 188 161 158 162 168 170 176 177 180 178 180 183 177 171 166 163 166 158 160 161 164 162 160 155 137 138 136 130 127 135 144 127 103 99 135 130 132
229 265 300 271 296 290 197 155 186 180 216 203 171 169 162 175 178 179 181 179 175 182 187 183 181 178 178 161 173 177 170 174 177 179 176 156 161 163 161 165 173 174 179 174 193 190 178 176 167
195 264 317 309 308 285 290 214 205 217 212 93 144 166 178 186 190 186 185 182 181 186 188 189 182 184 180 172 178 181 187 183 190 181 181 166 167 181 166 177 182 186 179 186 198 198 196 177 185
175 257 268 296 297 279 273 265 181 249 172 131 156 179 192 191 194 175 188 185 192 188 191 187 186 190 180 185 183 186 186 185 185 185 188 179 179 178 181 183 198 193 189 196 187 190 189 204 192
73 300 290 265 278 246 197 272 229 227 166 177 185 186 195 209 194 203 198 192 190 196 190 186 187 183 183 193 186 188 189 188 189 193 183 182 180 180 181 183 188 203 196 192 182 197 175 170 202
106 307 256 245 235 254 170 258 232 228 173 215 206 196 196 202 206 213 203 203 197 193 195 192 190 185 184 190 189 186 187 189 192 189 181 186 190 187 175 182 191 192 188 186 178 182 203 222 210
144 228 228 262 208 222 200 251 231 219 200 225 210 208 207 212 215 217 210 204 195 195 191 194 195 188 190 186 190 184 180 187 192 182 189 195 193 185 184 190 197 185 190 188 179 198 177 198 227
177 212 242 234 222 283 232 248 265 249 202 226 222 214 213 212 219 212 213 210 201 194 192 193 197 198 193 190 188 173 178 190 188 188 191 196 194 192 187 191 196 184 180 198 184 200 203 197 208
158 201 230 247 221 213 250 245 243 241 224 239 235 236 218 218 221 210 209 207 203 192 187 193 193 196 189 195 193 204 208 196 198 204 195 192 197 194 193 194 197 187 191 198 196 157 191 241 204
158 172 238 253 229 228 263 249 247 229 231 229 229 227 227 222 226 210 203 201 200 198 199 192 197 190 193 194 195 197 191 210 211 203 202 195 196 199 199 198 202 192 191 195 182 173 177 240 191
214 183 237 241 224 257 277 263 251 236 233 240 238 233 224 222 218 218 204 201 202 203 201 197 193 190 191 186 183 161 143 139 180 208 211 204 198 201 202 199 201 196 195 205 191 185 179 206 218
214 209 220 277 214 241 186 272 247 229 227 224 226 228 231 223 208 212 207 204 206 209 201 197 189 190 190 184 189 195 201 204 212 210 207 207 203 206 206 204 202 201 201 201 198 194 199 175 205
227 153 183 275 200 330 226 230 259 184 236 235 232 232 229 227 210 214 207 207 206 198 194 196 188 185 190 190 193 194 207 213 195 192 195 209 210 212 209 206 205 204 205 209 199 178 204 207 195
133 146 71 3 108 240 215 201 264 198 213 250 232 227 230 220 212 214 207 205 205 191 191 192 190 195 185 188 196 197 206 204 197 192 203 211 216 214 212 208 207 208 205 202 199 201 202 209 215
185 151 134 218 202 229 232 201 252 250 251 232 238 239 229 224 211 216 193 198 199 188 186 190 191 196 193 192 197 203 207 205 206 204 204 201 208 213 211 207 207 206 208 203 195 197 208 203 206
186 202 165 185 216 222 101 236 246 241 249 246 224 243 273 228 220 216 202 200 202 192 189 190 193 199 193 194 203 205 205 210 214 212 209 214 214 214 203 202 208 206 199 195 195 205 210 203 207
161 196 186 97 334 63 217 291 288 267 244 243 234 230 225 225 218 221 217 195 195 197 198 192 192 199 194 197 204 205 204 209 213 214 209 212 213 207 193 193 203 200 197 193 195 206 207 196 203
175 140 149 99 158 246 245 256 249 271 260 261 237 232 232 228 227 219 214 205 200 203 198 194 197 196 195 198 203 206 208 210 214 205 207 208 206 187 192 199 202 202 199 199 198 206 200 202 209
180 177 199 137 166 185 197 246 220 246 186 247 238 223 221 219 228 235 232 220 198 185 178 186 185 184 189 194 202 207 211 214 212 211 209 206 200 195 200 203 205 203 204 202 202 210 200 208 209
210 197 204 179 191 204 154 262 230 245 269 238 247 214 217 209 211 219 217 193 162 162 159 177 181 188 193 196 196 210 205 195 205 215 209 190 197 197 206 206 202 203 206 204 205 207 197 206 207